Torna al catalogo

ATLAS 5 CENTAUR DEB

AttivoHEO
NORAD 55855·DEBRIS·🇺🇸 United States

Lanciato Oct 17, 2018 da Cape Canaveral Space Force Station

Loading…

Prossimi Passaggi (prossime 24 ore)

TLE

In scadenzaSource: Space-Track

Epoca: Aug 27, 2026, 08:11 UTC

1 55855U 18079HH  26239.34100164 -.00000138  00000-0  00000-0 0  9997
2 55855  13.4053   9.4322 4631880  11.9377 355.9625  1.90885264 19439

Traccia ATLAS 5 CENTAUR DEB in tempo reale con AllMySat

Download on the App Store